Regional Weather Roundup
Issued by NWS Jackson, KY

Home | Current Version | Previous Version | Text Only | Print | Product List | Glossary Off
Versions: 1 2 3 4 5 6 7 8 9 10 11 12 13 14 15 16 17 18 19 20 21 22 23 24 25 26 27 28 29 30 31 32 33 34 35 36 37 38 39 40 41 42 43 44 45 46 47 48 49 50

000
ASUS43 KJKL 300910
RWRJKL

EAST KENTUCKY HOURLY WEATHER ROUNDUP
NATIONAL WEATHER SERVICE JACKSON KY
500 AM EDT SAT JUL 30 2016

NOTE: "FAIR" INDICATES FEW OR NO CLOUDS BELOW 12,000 FEET WITH
NO SIGNIFICANT WEATHER AND/OR OBSTRUCTIONS TO VISIBILITY.

* THESE REPORTS ARE NOT UNDER NWS QUALITY CONTROL AND MAY NOT
  REPORT WEATHER SUCH AS PRECIPITATION AND FOG.

KYZ079-080-083-085-087-088-110-112-115-119-120-301000
...EASTERN KENTUCKY...

CITY           SKY/WX    TMP DP  RH WIND       PRES   REMARKS
JACKSON        PTCLDY    69  67  93 CALM      29.97R
LONDON         CLOUDY    70  67  90 CALM      29.98R
SOMERSET*      CLOUDY    70  70 100 CALM      29.98R
MONTICELLO*    CLOUDY   N/A N/A N/A NE8       29.99R
WILLIAMSBURG*  CLOUDY    68  68 100 CALM      29.99R
MIDDLESBORO*   CLOUDY    70  69  99 CALM      30.00R
HARLAN APT*      N/A     68  66  94 CALM      30.01R
PIKE CO APT*   MOCLDY    66  66 100 S5        29.98S FOG
MOREHEAD APT*  CLOUDY    72  70  94 VRB3      29.96S
ASHLAND*       CLOUDY    73  70  88 CALM      29.90S
$$

KYZ035-036-041-042-044-050-067-078-099-301000
...CENTRAL KENTUCKY...

CITY           SKY/WX    TMP DP  RH WIND       PRES   REMARKS
MT STERLING*   CLOUDY    70  70 100 SW3       29.97R
FLEMING/MASON* CLOUDY    71  70  98 SW6       29.94R
DANVILLE*      CLOUDY    70  70 100 CALM      29.97R
LEXINGTON      CLOUDY    71  68  90 CALM      29.95S
FRANKFORT      CLOUDY    71  68  90 S3        29.92S
LOUISVILLE     MOCLDY    73  70  90 SW7       29.92R
GLASGOW*       CLOUDY    72  72 100 SW3       29.95S
BOWLING GREEN  PTCLDY    73  70  90 SW3       29.95R
$$

KYZ091>093-OHZ055-061-077-WVZ005-015-034-035-042-301000
...SOUTHERN OHIO/WEST VIRGINIA...

CITY           SKY/WX    TMP DP  RH WIND       PRES   REMARKS
COVINGTON      CLOUDY    71  70  96 W3        29.91S FOG
COLUMBUS       CLOUDY    70  69  97 SE5       29.90S
DAYTON         MOCLDY    70  69  97 W5        29.93R FOG
WILMINGTON     CLOUDY    68  68 100 CALM      29.92R FOG
HUNTINGTON       N/A     71  69  93 CALM      29.93S
CHARLESTON       N/A     70  68  93 CALM      29.95S
PINEVILLE*     CLOUDY    69  66  90 MISG      30.06R FOG
BECKLEY          N/A     65  63  93 S3        30.04R
BLUEFIELD        N/A     64  62  93 W3        30.07R
LOGAN CO APT*    N/A     68  66  94 CALM      29.98S
$$

VAZ002-007-008-TNZ017-027-036-066-071-301000
...SOUTHWEST VIRGINIA/EAST TENNESSEE...

CITY           SKY/WX    TMP DP  RH WIND       PRES   REMARKS
WISE*            N/A     64  63  94 CALM      30.07S
JONESVILLE*    CLOUDY    68  68 100 CALM      30.03R
ABINGDON*      CLOUDY    68  68 100 CALM      30.05R FOG
BRISTOL        MOCLDY    68  67  96 CALM      30.02R FOG
MORRISTOWN*    CLOUDY    70  70 100 CALM      29.99R
SEVIERVILLE*   SUNNY     70  68  94 CALM      29.99R
KNOXVILLE      MOCLDY    73  69  87 CALM      29.98R
OAK RIDGE      CLOUDY    74  70  87 CALM      29.99R
CROSSVILLE     CLOUDY    71  69  93 CALM      30.03R
NASHVILLE      CLOUDY    74  70  87 W5        29.98R
$$

...KEY TO REMARKS...
VSB - VISIBILITY IN MILES
WCI - WIND CHILL INDEX
HX  - HEAT INDEX

$$



USA.gov is the U.S. government's official web portal to all federal, state and local government web resources and services.